Regional Weather Roundup
Issued by NWS

Home | Current Version | Previous Version | Text Only | Print | Product List | Glossary On
Versions: 1 2 3 4 5 6 7 8 9 10 11 12 13 14 15 16 17 18 19 20 21 22 23 24 25 26 27 28 29 30 31 32 33 34 35 36 37 38 39 40 41 42 43 44 45 46 47 48 49 50
000
ASUS44 KOUN 031610
RWROK

WEATHER ROUNDUP FOR OKLAHOMA
NATIONAL WEATHER SERVICE NORMAN OK
1100 AM CDT FRI JUL 03 2015

NOTE: "FAIR" INDICATES FEW OR NO CLOUDS BELOW 12,000 FEET WITH NO
      SIGNIFICANT WEATHER AND/OR OBSTRUCTIONS TO VISIBILITY.

OKZ001>007-009>012-014-015-017-031700-
NORTHWEST OKLAHOMA AND THE PANHANDLE

CITY           SKY/WX    TMP DP  RH WIND       PRES   REMARKS
GAGE           SUNNY     80  71  74 VRB3      30.03F
GUYMON         MOSUNNY   79  63  57 VRB3      30.07S
ENID/WOODRING  MOSUNNY  N/A N/A N/A NW8       29.94F
$$

OKZ016-021>023-033>039-044-045-031700-
SOUTHWEST OKLAHOMA

CITY           SKY/WX    TMP DP  RH WIND       PRES   REMARKS
LAWTON/REGL    SUNNY     87  68  52 W10       29.95S HX  90
LAWTON/FT SILL MOSUNNY   85  73  66 SW7       29.93F HX  92
FREDERICK      MOSUNNY   86  70  58 W9        29.93F HX  90
CLINTON        PTSUNNY   79  69  71 N9        30.02F
HOBART         SUNNY     84  71  65 N10       29.98S
ALTUS AFB      PTSUNNY   83  74  75 VRB3      29.96F HX  90
$$

OKZ018>020-024>031-031700-
CENTRAL OKLAHOMA

CITY           SKY/WX    TMP DP  RH WIND       PRES   REMARKS
OKLAHOMA CITY  PTSUNNY   80  72  76 W5        29.97S
OKC/WILEY POST PTSUNNY   79  72  79 NW6       29.97S
OKC/TINKER AFB PTSUNNY   80  70  73 W8        29.96S
STILLWATER     SUNNY     83  73  72 VRB6      29.94F
GUTHRIE        MOSUNNY   82  72  71 NW6       29.95F
$$

OKZ008-013-054>072-031700-
NORTHEAST OKLAHOMA

CITY           SKY/WX    TMP DP  RH WIND       PRES   REMARKS
TULSA          PTSUNNY   82  74  76 W8        29.92S
TULSA/JONES    CLOUDY    81  72  74 W5        29.92S
PONCA CITY     SUNNY     85  65  51 VRB7      29.94S
BARTLESVILLE   MOSUNNY   85  71  63 VRB3      29.92F HX  90
MUSKOGEE       PTSUNNY   80  73  79 W7        29.94S
$$

OKZ032-040>043-046>053-073>077-031700-
SOUTH CENTRAL/SOUTHEAST OKLAHOMA

CITY           SKY/WX    TMP DP  RH WIND       PRES   REMARKS
ARDMORE/DWNTWN LGT RAIN  72  70  94 SW7       29.95F
MCALESTER      PTSUNNY   80  71  74 SW15      29.95S
$$



USA.gov is the U.S. government's official web portal to all federal, state and local government web resources and services.